Regional Weather Roundup
Issued by NWS

Home | Current Version | Previous Version | Graphics & Text | Print | Product List | Glossary On
Versions: 1 2 3 4 5 6 7 8 9 10 11 12 13 14 15 16 17 18 19 20 21 22 23 24 25 26 27
000
ASUS45 KBOU 170806
RWRCO

WEATHER ROUNDUP FOR COLORADO
NATIONAL WEATHER SERVICE DENVER/BOULDER CO
200 AM MDT THU APR 17 2014

NOTE: "FAIR" INDICATES FEW OR NO CLOUDS BELOW 12000 FEET WITH NO
SIGNIFICANT WEATHER AND/OR OBSTRUCTIONS TO VISIBILITY.

COZ001>005-013-030-031-170900-
...NORTHWEST COLORADO...

CITY           SKY/WX    TMP DP  RH WIND       PRES   REMARKS
CRAIG          CLEAR     26  19  74 SW3       30.05R
HAYDEN         CLEAR     30  16  55 CALM      30.06R
MEEKER         MOCLDY    35  20  54 SE6       30.05R WCI  30
MOUNT WERNER   NOT AVBL
STEAMBOAT SPGS CLEAR     28  17  63 E3        30.04S
WALDEN         PTCLDY    23  18  80 SE5       30.04S WCI  17
$$

COZ006>008-011-170900-
...WEST CENTRAL VALLEYS...

CITY           SKY/WX    TMP DP  RH WIND       PRES   REMARKS
GRAND JUNCTION CLEAR     39  22  50 E13       29.99R
MONTROSE       CLEAR     37  26  64 SE9       30.04S
EAGLE          MOCLDY    30  21  69 E5        30.08S WCI  25
RIFLE          MOCLDY    35  23  61 NE5       30.03R WCI  31
DELTA          CLEAR     38  22  51 E8        30.03R
NUCLA            N/A     36  27  69 SE9       30.06F
$$

COZ017>023-064>068-170900-
...SOUTHWEST COLORADO...

CITY           SKY/WX    TMP DP  RH WIND       PRES   REMARKS
DURANGO        CLEAR     40  22  48 CALM      30.02R
CORTEZ         CLEAR     29  20  69 E8        30.04R WCI  21
PAGOSA SPRINGS CLEAR     32  24  72 CALM      30.05S
TELLURIDE      PTCLDY    30  25  80 E5        30.09S WCI  25
WOLF CREEK PAS CLEAR     19  18  93 NE15      30.13S WCI   5
$$

COZ009-010-012-014-032>034-037-058>063-170900-
...CENTRAL COLORADO...

CITY           SKY/WX    TMP DP  RH WIND       PRES   REMARKS
ASPEN          PTCLDY    30  18  60 SW8       30.05F WCI  22
BUENA VISTA    LGT SNOW  30  29  96 SE6       30.13S WCI  24
COPPER MTN     CLOUDY    23  14  68 SW8       30.12S WCI  14
BERTHOUD PASS  FAIR      12   3  67 W22       30.10F WCI  -7
COTTONWOOD PAS LGT SNOW  28  27  93 SE5       30.12S WCI  23
GUNNISON       CLEAR     27  16  63 NE5       30.10S WCI  21
KREMMLING      PTCLDY    28  19  69 CALM      30.08S
LEADVILLE      CLOUDY    23  21  92 CALM      30.10S
MONARCH PASS   FOG       19  18  93 MISG      30.22R VSB<1/4
SALIDA         CLOUDY    32  31  95 SE3       30.20R
SUNLIGHT       PTCLDY    28  10  47 CALM      30.13S
WILKERSON PASS LGT SNOW  21  18  86 SW5       30.14S WCI  15
$$

COZ069>075-170900-
...SAN LUIS VALLEY/SANGRE DE CRISTO MOUNTAINS...

CITY           SKY/WX    TMP DP  RH WIND       PRES   REMARKS
ALAMOSA        CLOUDY    33  31  92 CALM      30.09S
LA VETA PASS   LGT SNOW  23  21  93 MISG      30.10S VSB 3/4
SAGUACHE       CLOUDY    34  30  86 CALM      30.10R
$$

COZ035-036-038>040-170900-
...NORTHERN COLORADO FRONT RANGE...

CITY           SKY/WX    TMP DP  RH WIND       PRES   REMARKS
DENVER INTL AP MOCLDY    30  27  88 SE12      30.09F WCI  20
DMNS CITY PARK   N/A     37  30  77 SE5       30.08S
AURORA         PTCLDY    32  28  86 S9        30.09F WCI  24
FRONT RANGE AP NOT AVBL
ERIE MUNI ARPT CLOUDY    40  32  73 S6        30.08F
BOULDER MUN AP CLOUDY    39  30  70 CALM      30.07F
CENTENNIAL     PTCLDY    33  28  81 SE7       30.09F WCI  27
BROOMFIELD     PTCLDY    37  32  81 CALM      30.08F
FORT COLLINS   PTCLDY    37  28  70 E10       30.09F
LONGMONT       PTCLDY    36  30  80 NW5       30.10S
$$

COZ041-046-047-076>085-087-088-170900-
...PIKES PEAK/PALMER DIVIDE AND SOUTHERN FOOTHILLS...

CITY           SKY/WX    TMP DP  RH WIND       PRES   REMARKS
COLO. SPRINGS  LGT SNOW  34  33  96 S7        30.14F FOG     WCI  28
A. F. ACADEMY  LGT SNOW  32  32 100 CALM      30.12F FOG
ELLICOTT       NOT AVBL
FALCON         CLOUDY    32  32  99 S8        30.14S FOG     WCI  25
FORT CARSON    LGT RAIN  34  34  99 S6        30.13F WCI  29
LIMON          CLOUDY    37  32  82 S8        30.13F
MONUMENT HILL  MOCLDY    30  28  93 S10       30.10S WCI  21
TRINIDAD       LGT RAIN  37  33  85 N7        30.14S
$$

COZ042>045-048>051-090-091-170900-
...NORTHEAST COLORADO...

CITY           SKY/WX    TMP DP  RH WIND       PRES   REMARKS
GREELEY ARPT   CLEAR     37  27  65 SE13      30.09F
AKRON          CLOUDY    32  31  96 E7        30.12F WCI  26
BURLINGTON     CLOUDY    38  32  79 E7        30.15S
WRAY           CLOUDY    35  33  92 E7        30.17S WCI  29
STERLING       CLOUDY    36  32  87 NE7       30.13S
HOLYOKE        CLOUDY    34  32  93 NE10      30.16S WCI  26
FORT MORGAN    CLOUDY    35  32  86 MISG      30.13S
$$

COZ086-089-092>099-170900-
...SOUTHEAST COLORADO...

CITY           SKY/WX    TMP DP  RH WIND       PRES   REMARKS
PUEBLO         CLOUDY    38  36  92 W7        30.15F
LA JUNTA       LGT RAIN  42  38  85 E12       30.15R
LAMAR          LGT RAIN  43  37  79 NE6       30.13S
SPRINGFIELD      N/A     41  35  79 NE10      30.11S
$$



USA.gov is the U.S. government's official web portal to all federal, state and local government web resources and services.